Tracking 19562 objects as of 23-Mar-2019
HD Live streaming from Space Station
objects crossing your sky now

SHENZHOU-11 MODULE

Track SHENZHOU-11 MODULE now!
10-day predictions
SHENZHOU-11 MODULE is classified as:


NORAD ID: 41868
Int'l Code: 2016-061G
Perigee: 341.0 km
Apogee: 346.1 km
Inclination: 42.8 °
Period: 91.3 minutes
Semi major axis: 6714 km
RCS: Unknown
Launch date: October 16, 2016
Source: People's Republic of China (PRC)
Launch site: Jiuquan Satellite Launch Center, China (JSC)
aabbcc
Your satellite tracking list
Your tracking list is empty




NASA's NSSDC Master Catalog

Two Line Element Set (TLE):
1 41868U 16061G   19080.86349813 +.00012223 +00000-0 +72834-4 0  9999
2 41868 042.7914 062.4150 0003819 152.0574 286.9067 15.77886795134064
Source of the keplerian elements: AFSPC